When you browse on this site, cookies collect data to enhance your experience and personalize the content and advertising you see.
Visit our Privacy Policy to learn more. By continuing to use the site, you agree to this use of cookies and data.
  • In Czech Republic
  • List of Countries
  • For 7 days
  • Water Temperature
  • Satellite Maps
  • Weather Map
  • Weather Widgets
  • user-avatar
    Login

    Hourly Weather Kandahar

    Today, 22 March, Friday

    Time Temperature Precipitation Wind Pressure Humidity
    00:00 +16°C° 0 mm 5 mps 675 mmHg 36%
    01:00 +15°C° 0 mm 4 mps 674 mmHg 39%
    02:00 +14°C° 0 mm 5 mps 674 mmHg 40%
    03:00 +14°C° 0 mm 5 mps 674 mmHg 41%
    04:00 +13°C° 0 mm 5 mps 674 mmHg 43%
    05:00 +14°C° 0 mm 5 mps 674 mmHg 42%
    06:00 +14°C° 0 mm 5 mps 674 mmHg 42%
    07:00 +14°C° 0 mm 6 mps 674 mmHg 41%
    08:00 +16°C° 0 mm 5 mps 675 mmHg 38%
    09:00 +19°C° 0 mm 5 mps 676 mmHg 35%
    10:00 +21°C° 0 mm 4 mps 676 mmHg 32%
    11:00 +22°C° 0 mm 4 mps 676 mmHg 29%
    12:00 +25°C° 0 mm 4 mps 676 mmHg 27%
    13:00 +26°C° 0 mm 4 mps 676 mmHg 24%
    14:00 +26°C° 0 mm 5 mps 676 mmHg 23%
    15:00 +26°C° 0 mm 6 mps 675 mmHg 23%
    16:00 +26°C° 0 mm 7 mps 675 mmHg 22%
    17:00 +24°C° 0 mm 6 mps 675 mmHg 26%
    18:00 +23°C° 0 mm 5 mps 675 mmHg 29%
    19:00 +22°C° 0 mm 4 mps 675 mmHg 33%
    20:00 +21°C° 0.3 mm 3 mps 675 mmHg 38%
    21:00 +20°C° 0.3 mm 3 mps 675 mmHg 42%
    22:00 +19°C° 0.3 mm 3 mps 675 mmHg 47%
    23:00 +19°C° 0.2 mm 3 mps 675 mmHg 51%

    Tomorrow, 23 March, Saturday

    Time Temperature Precipitation Wind Pressure Humidity
    00:00 +18°C° 0.2 mm 4 mps 675 mmHg 55%
    01:00 +17°C° 0.2 mm 4 mps 675 mmHg 60%
    02:00 +17°C° 0.3 mm 4 mps 675 mmHg 61%
    03:00 +17°C° 0.3 mm 3 mps 675 mmHg 63%
    04:00 +17°C° 0.3 mm 3 mps 675 mmHg 65%
    05:00 +17°C° 0.5 mm 2 mps 675 mmHg 66%
    06:00 +17°C° 0.5 mm 2 mps 675 mmHg 67%
    07:00 +16°C° 0.5 mm 1 mps 676 mmHg 68%
    08:00 +18°C° 0.5 mm 1 mps 676 mmHg 64%
    09:00 +18°C° 0.5 mm 2 mps 676 mmHg 59%
    10:00 +19°C° 0.5 mm 2 mps 677 mmHg 55%
    11:00 +21°C° 0.1 mm 1 mps 676 mmHg 49%
    12:00 +22°C° 0.1 mm 1 mps 676 mmHg 43%
    13:00 +23°C° 0.1 mm 1 mps 676 mmHg 37%
    14:00 +23°C° 0 mm 1 mps 676 mmHg 35%
    15:00 +24°C° 0 mm 2 mps 675 mmHg 32%
    16:00 +24°C° 0 mm 2 mps 675 mmHg 29%
    17:00 +24°C° 0 mm 2 mps 675 mmHg 31%
    18:00 +23°C° 0 mm 2 mps 675 mmHg 33%
    19:00 +23°C° 0 mm 2 mps 676 mmHg 35%
    20:00 +22°C° 0 mm 1 mps 676 mmHg 37%
    21:00 +21°C° 0 mm 1 mps 676 mmHg 39%
    22:00 +19°C° 0 mm 0 mps 676 mmHg 42%
    23:00 +18°C° 0 mm 0 mps 676 mmHg 43%

    Day after tomorrow, 24 March, Sunday

    Time Temperature Precipitation Wind Pressure Humidity
    00:00 +18°C° 0 mm 0 mps 676 mmHg 45%
    01:00 +17°C° 0 mm 0 mps 675 mmHg 46%
    02:00 +19°C° 0 mm 1 mps 675 mmHg 48%
    03:00 +18°C° 0 mm 1 mps 675 mmHg 49%
    04:00 +18°C° 0 mm 1 mps 675 mmHg 51%
    05:00 +18°C° 0 mm 1 mps 675 mmHg 51%
    06:00 +17°C° 0 mm 2 mps 675 mmHg 51%
    07:00 +17°C° 0 mm 2 mps 676 mmHg 52%
    08:00 +17°C° 0.3 mm 2 mps 676 mmHg 54%
    09:00 +17°C° 0.3 mm 2 mps 676 mmHg 56%
    10:00 +17°C° 0.3 mm 2 mps 676 mmHg 58%
    11:00 +18°C° 0 mm 3 mps 676 mmHg 52%
    12:00 +19°C° 0 mm 3 mps 676 mmHg 46%
    13:00 +21°C° 0 mm 4 mps 676 mmHg 40%
    14:00 +21°C° 0 mm 3 mps 675 mmHg 38%
    15:00 +23°C° 0 mm 2 mps 675 mmHg 35%
    16:00 +23°C° 0 mm 1 mps 675 mmHg 33%
    17:00 +22°C° 0 mm 1 mps 675 mmHg 35%
    18:00 +22°C° 0 mm 1 mps 675 mmHg 37%
    19:00 +21°C° 0 mm 1 mps 675 mmHg 40%
    20:00 +20°C° 0 mm 1 mps 675 mmHg 41%
    21:00 +19°C° 0 mm 2 mps 675 mmHg 42%
    22:00 +19°C° 0 mm 2 mps 675 mmHg 43%
    23:00 +18°C° 0 mm 2 mps 675 mmHg 43%

    25 March, Monday

    Time Temperature Precipitation Wind Pressure Humidity
    00:00 +18°C° 0 mm 3 mps 675 mmHg 43%
    01:00 +18°C° 0 mm 3 mps 675 mmHg 43%
    02:00 +17°C° 0 mm 3 mps 675 mmHg 44%
    03:00 +17°C° 0 mm 3 mps 675 mmHg 46%
    04:00 +16°C° 0 mm 3 mps 674 mmHg 48%
    05:00 +16°C° 0 mm 3 mps 675 mmHg 47%
    06:00 +15°C° 0 mm 4 mps 675 mmHg 46%
    07:00 +15°C° 0 mm 4 mps 676 mmHg 45%
    08:00 +18°C° 0 mm 4 mps 676 mmHg 40%
    09:00 +20°C° 0 mm 4 mps 677 mmHg 35%
    10:00 +22°C° 0 mm 4 mps 678 mmHg 30%
    11:00 +24°C° 0 mm 3 mps 677 mmHg 29%
    12:00 +25°C° 0 mm 2 mps 677 mmHg 29%
    13:00 +26°C° 0 mm 1 mps 677 mmHg 28%
    14:00 +26°C° 0 mm 1 mps 677 mmHg 28%
    15:00 +26°C° 0 mm 1 mps 676 mmHg 27%
    16:00 +24°C° 0 mm 0 mps 676 mmHg 26%
    17:00 +26°C° 0 mm 1 mps 676 mmHg 29%
    18:00 +25°C° 0 mm 2 mps 676 mmHg 31%
    19:00 +25°C° 0 mm 2 mps 676 mmHg 34%
    20:00 +24°C° 0 mm 2 mps 677 mmHg 35%
    21:00 +23°C° 0 mm 2 mps 677 mmHg 37%
    22:00 +23°C° 0 mm 2 mps 677 mmHg 38%
    23:00 +21°C° 0 mm 2 mps 677 mmHg 39%

    26 March, Tuesday

    Time Temperature Precipitation Wind Pressure Humidity
    00:00 +21°C° 0 mm 2 mps 676 mmHg 39%
    01:00 +21°C° 0 mm 2 mps 676 mmHg 40%
    02:00 +20°C° 0 mm 2 mps 676 mmHg 40%
    03:00 +20°C° 0 mm 2 mps 676 mmHg 39%
    04:00 +20°C° 0 mm 3 mps 676 mmHg 39%
    05:00 +20°C° 0 mm 3 mps 676 mmHg 39%
    06:00 +20°C° 0 mm 3 mps 676 mmHg 39%
    07:00 +20°C° 0 mm 3 mps 677 mmHg 38%
    08:00 +22°C° 0 mm 3 mps 677 mmHg 34%
    09:00 +25°C° 0 mm 3 mps 678 mmHg 30%
    10:00 +26°C° 0 mm 3 mps 678 mmHg 26%
    11:00 +27°C° 0 mm 3 mps 678 mmHg 25%
    12:00 +28°C° 0 mm 3 mps 678 mmHg 24%
    13:00 +29°C° 0 mm 3 mps 678 mmHg 22%
    14:00 +29°C° 0 mm 4 mps 678 mmHg 24%
    15:00 +29°C° 0 mm 4 mps 678 mmHg 26%
    16:00 +28°C° 0 mm 4 mps 677 mmHg 27%
    17:00 +27°C° 0 mm 4 mps 678 mmHg 31%
    18:00 +26°C° 0 mm 3 mps 678 mmHg 34%
    19:00 +26°C° 0 mm 3 mps 678 mmHg 37%
    20:00 +25°C° 0 mm 3 mps 678 mmHg 39%
    21:00 +24°C° 0 mm 3 mps 678 mmHg 42%
    22:00 +22°C° 0 mm 3 mps 678 mmHg 45%
    23:00 +22°C° 0 mm 3 mps 678 mmHg 45%

    27 March, Wednesday

    Time Temperature Precipitation Wind Pressure Humidity
    00:00 +22°C° 0 mm 3 mps 677 mmHg 46%
    01:00 +21°C° 0 mm 3 mps 676 mmHg 47%
    02:00 +21°C° 0 mm 3 mps 676 mmHg 47%
    03:00 +21°C° 0 mm 3 mps 676 mmHg 47%
    04:00 +21°C° 0 mm 2 mps 676 mmHg 46%
    05:00 +21°C° 0 mm 2 mps 677 mmHg 45%
    06:00 +21°C° 0 mm 2 mps 677 mmHg 43%
    07:00 +23°C° 0 mm 2 mps 677 mmHg 42%
    08:00 +24°C° 0 mm 2 mps 678 mmHg 36%
    09:00 +25°C° 0 mm 2 mps 678 mmHg 31%
    10:00 +26°C° 0 mm 1 mps 678 mmHg 26%
    11:00 +27°C° 0 mm 3 mps 678 mmHg 25%
    12:00 +27°C° 0 mm 5 mps 678 mmHg 24%
    13:00 +28°C° 0 mm 6 mps 678 mmHg 23%
    14:00 +27°C° 0 mm 5 mps 678 mmHg 27%
    15:00 +25°C° 0 mm 4 mps 678 mmHg 31%
    16:00 +24°C° 0 mm 2 mps 678 mmHg 35%
    17:00 +24°C° 0 mm 2 mps 678 mmHg 38%
    18:00 +24°C° 0 mm 1 mps 679 mmHg 42%
    19:00 +21°C° 0 mm 0 mps 679 mmHg 45%
    20:00 +21°C° 0 mm 0 mps 679 mmHg 48%
    21:00 +20°C° 0 mm 0 mps 679 mmHg 51%
    22:00 +19°C° 0 mm 0 mps 679 mmHg 54%
    23:00 +21°C° 0 mm 1 mps 678 mmHg 54%
    Show more